| time (UTC) | temp C | wind direction | speed KPH | gust KPH | rain 1hr cm | rain 24hr cm | rain mn cm | humidity % | barometer mb |
| 20260902070030 | 16 | 46 | 0.0 | 1.6 | 0.00 | 0.00 | 0.00 | 89 | 1019.2 |
| 20260902064526 | 16 | 46 | 0.0 | 1.6 | 0.00 | 0.00 | 0.00 | 89 | 1019.2 |
| 20260902063028 | 16 | 46 | 0.0 | 1.6 | 0.00 | 0.00 | 0.00 | 89 | 1019.1 |
| 20260902061523 | 16 | 46 | 0.0 | 0.0 | 0.00 | 0.00 | 0.00 | 89 | 1019.1 |
| 20260902060027 | 16 | 46 | 0.0 | 0.0 | 0.00 | 0.00 | 0.00 | 89 | 1019.4 |
| 20260902054523 | 16 | 46 | 0.0 | 1.6 | 0.00 | 0.00 | 0.00 | 89 | 1019.2 |
| 20260902053019 | 16 | 46 | 0.0 | 1.6 | 0.00 | 0.00 | 0.00 | 89 | 1019.0 |
| 20260902051516 | 16 | 46 | 0.0 | 3.2 | 0.00 | 0.00 | 0.00 | 88 | 1018.8 |
| 20260902050016 | 16 | 46 | 0.0 | 3.2 | 0.00 | 0.00 | 0.00 | 88 | 1018.5 |
| 20260902044531 | 16 | 48 | 0.0 | 1.6 | 0.00 | 0.00 | 0.00 | 88 | 1018.3 |
| 20260902043008 | 16 | 48 | 1.6 | 6.4 | 0.00 | 0.00 | 0.00 | 87 | 1018.2 |
| 20260902041506 | 17 | 30 | 1.6 | 4.8 | 0.00 | 0.00 | 0.00 | 87 | 1018.2 |
| 20260902040004 | 17 | 60 | 0.0 | 6.4 | 0.00 | 0.00 | 0.00 | 87 | 1017.9 |
| 20260902034502 | 17 | 24 | 0.0 | 3.2 | 0.00 | 0.00 | 0.00 | 87 | 1018.0 |
| 20260902033114 | 17 | 24 | 0.0 | 3.2 | 0.00 | 0.00 | 0.00 | 87 | 1017.9 |
| 20260902031601 | 17 | 24 | 0.0 | 1.6 | 0.00 | 0.00 | 0.00 | 87 | 1017.7 |
| 20260902030059 | 17 | 24 | 1.6 | 3.2 | 0.00 | 0.00 | 0.00 | 87 | 1017.6 |
| 20260902024608 | 17 | 24 | 0.0 | 1.6 | 0.00 | 0.00 | 0.00 | 87 | 1017.3 |
| 20260902023100 | 17 | 24 | 0.0 | 1.6 | 0.00 | 0.00 | 0.00 | 87 | 1017.6 |
| 20260902021558 | 17 | 24 | 0.0 | 1.6 | 0.00 | 0.00 | 0.00 | 86 | 1017.6 |
| 20260902020123 | 17 | 24 | 0.0 | 1.6 | 0.00 | 0.00 | 0.00 | 86 | 1017.6 |
| 20260902014602 | 17 | 24 | 0.0 | 1.6 | 0.00 | 0.00 | 0.00 | 86 | 1017.6 |
| 20260902013058 | 17 | 24 | 0.0 | 3.2 | 0.00 | 0.00 | 0.00 | 86 | 1017.8 |
| 20260902011557 | 17 | 24 | 0.0 | 3.2 | 0.00 | 0.00 | 0.00 | 86 | 1017.7 |
| 20260902010055 | 17 | 24 | 0.0 | 1.6 | 0.00 | 0.00 | 0.00 | 86 | 1017.6 |
| 20260902004552 | 17 | 24 | 0.0 | 0.0 | 0.00 | 0.00 | 0.00 | 86 | 1017.4 |
| 20260902003049 | 17 | 24 | 0.0 | 4.8 | 0.00 | 0.00 | 0.00 | 86 | 1017.3 |
| 20260902001548 | 18 | 10 | 1.6 | 4.8 | 0.00 | 0.00 | 0.00 | 86 | 1017.0 |
| 20260902000048 | 18 | 32 | 0.0 | 3.2 | 0.00 | 0.00 | 0.00 | 85 | 1016.9 |
| 20260901234602 | 18 | 32 | 0.0 | 3.2 | 0.00 | 0.00 | 0.00 | 85 | 1016.9 |
| 20260901233052 | 18 | 32 | 0.0 | 1.6 | 0.00 | 0.00 | 0.00 | 85 | 1016.9 |
| 20260901231545 | 18 | 32 | 0.0 | 1.6 | 0.00 | 0.00 | 0.00 | 84 | 1016.9 |
| 20260901230050 | 18 | 32 | 0.0 | 1.6 | 0.00 | 0.00 | 0.00 | 82 | 1016.8 |
| 20260901224548 | 19 | 32 | 0.0 | 4.8 | 0.00 | 0.00 | 0.00 | 80 | 1016.6 |
| 20260901223051 | 20 | 33 | 1.6 | 8.0 | 0.00 | 0.00 | 0.00 | 78 | 1016.4 |
| 20260901221607 | 21 | 218 | 0.0 | 4.8 | 0.00 | 0.00 | 0.00 | 76 | 1016.3 |
| 20260901220043 | 21 | 67 | 0.0 | 4.8 | 0.00 | 0.00 | 0.00 | 72 | 1016.4 |
| 20260901214541 | 21 | 184 | 0.0 | 6.4 | 0.00 | 0.00 | 0.00 | 67 | 1016.4 |
| 20260901213043 | 21 | 161 | 1.6 | 11.3 | 0.00 | 0.00 | 0.00 | 66 | 1016.2 |
| 20260901211541 | 21 | 163 | 0.0 | 9.7 | 0.00 | 0.00 | 0.00 | 66 | 1016.1 |
| 20260901210040 | 21 | 286 | 1.6 | 11.3 | 0.00 | 0.00 | 0.00 | 62 | 1016.0 |
| 20260901204542 | 22 | 346 | 1.6 | 6.4 | 0.00 | 0.00 | 0.00 | 64 | 1015.8 |
| 20260901203053 | 22 | 15 | 0.0 | 4.8 | 0.00 | 0.00 | 0.00 | 71 | 1015.8 |
| 20260901201546 | 22 | 196 | 1.6 | 8.0 | 0.00 | 0.00 | 0.00 | 68 | 1015.7 |
| 20260901200038 | 22 | 211 | 3.2 | 8.0 | 0.00 | 0.00 | 0.00 | 66 | 1015.7 |
| 20260901194537 | 22 | 220 | 3.2 | 11.3 | 0.00 | 0.00 | 0.00 | 62 | 1015.7 |
| 20260901193037 | 22 | 187 | 1.6 | 11.3 | 0.00 | 0.00 | 0.00 | 62 | 1015.8 |
| 20260901191638 | 22 | 188 | 3.2 | 8.0 | 0.00 | 0.00 | 0.00 | 59 | 1015.9 |
| 20260901190042 | 22 | 157 | 0.0 | 4.8 | 0.00 | 0.00 | 0.00 | 57 | 1015.9 |
| 20260901184538 | 23 | 157 | 1.6 | 9.7 | 0.00 | 0.00 | 0.00 | 54 | 1015.9 |
| 20260901183037 | 23 | 360 | 1.6 | 4.8 | 0.00 | 0.00 | 0.00 | 57 | 1015.7 |
| 20260901181538 | 23 | 15 | 1.6 | 6.4 | 0.00 | 0.00 | 0.00 | 53 | 1015.8 |
| 20260901180034 | 23 | 340 | 1.6 | 14.5 | 0.00 | 0.00 | 0.00 | 51 | 1015.6 |
| 20260901174533 | 23 | 25 | 0.0 | 6.4 | 0.00 | 0.00 | 0.00 | 57 | 1015.7 |
| 20260901173031 | 24 | 34 | 4.8 | 9.7 | 0.00 | 0.00 | 0.00 | 52 | 1015.7 |
| 20260901171527 | 23 | 161 | 1.6 | 12.9 | 0.00 | 0.00 | 0.00 | 60 | 1015.7 |
| 20260901170024 | 21 | 213 | 1.6 | 4.8 | 0.00 | 0.00 | 0.00 | 64 | 1015.7 |
| 20260901164524 | 21 | 26 | 1.6 | 8.0 | 0.00 | 0.00 | 0.00 | 62 | 1015.7 |
| 20260901163021 | 20 | 32 | 3.2 | 6.4 | 0.00 | 0.00 | 0.00 | 63 | 1016.0 |
| 20260901161533 | 20 | 13 | 0.0 | 4.8 | 0.00 | 0.00 | 0.00 | 69 | 1016.1 |
| 20260901160034 | 20 | 67 | 1.6 | 4.8 | 0.00 | 0.00 | 0.00 | 66 | 1016.2 |
| 20260901154523 | 21 | 355 | 1.6 | 9.7 | 0.00 | 0.00 | 0.00 | 63 | 1016.3 |
| 20260901153015 | 20 | 285 | 3.2 | 9.7 | 0.00 | 0.00 | 0.00 | 72 | 1016.3 |
| 20260901151512 | 18 | 35 | 3.2 | 8.0 | 0.00 | 0.00 | 0.00 | 71 | 1016.3 |
| 20260901150011 | 18 | 5 | 1.6 | 6.4 | 0.00 | 0.00 | 0.00 | 72 | 1016.3 |
| 20260901144507 | 18 | 355 | 0.0 | 4.8 | 0.00 | 0.00 | 0.00 | 74 | 1016.1 |
| 20260901143005 | 17 | 13 | 1.6 | 4.8 | 0.00 | 0.00 | 0.00 | 75 | 1016.1 |
| 20260901141506 | 17 | 35 | 1.6 | 8.0 | 0.00 | 0.00 | 0.00 | 74 | 1016.1 |
| 20260901140004 | 17 | 63 | 1.6 | 6.4 | 0.00 | 0.00 | 0.00 | 75 | 1016.3 |
| 20260901134621 | 16 | 73 | 0.0 | 4.8 | 0.00 | 0.00 | 0.00 | 81 | 1016.5 |
| 20260901133056 | 16 | 55 | 0.0 | 3.2 | 0.00 | 0.00 | 0.00 | 81 | 1016.5 |
| 20260901131553 | 15 | 58 | 0.0 | 1.6 | 0.00 | 0.00 | 0.00 | 82 | 1016.5 |
| 20260901124601 | 15 | 61 | 0.0 | 1.6 | 0.00 | 0.00 | 0.00 | 83 | 1016.7 |
| 20260901123050 | 15 | 61 | 0.0 | 4.8 | 0.00 | 0.00 | 0.00 | 85 | 1016.6 |
| 20260901121553 | 15 | 22 | 0.0 | 4.8 | 0.00 | 0.00 | 0.00 | 84 | 1016.7 |
| 20260901120058 | 15 | 360 | 0.0 | 4.8 | 0.00 | 0.00 | 0.00 | 85 | 1016.8 |
| 20260901114543 | 14 | 326 | 0.0 | 6.4 | 0.00 | 0.00 | 0.00 | 88 | 1016.5 |
| 20260901113105 | 14 | 274 | 0.0 | 3.2 | 0.00 | 0.00 | 0.00 | 89 | 1016.4 |
| 20260901111536 | 13 | 274 | 0.0 | 3.2 | 0.00 | 0.00 | 0.00 | 90 | 1016.1 |
| 20260901110034 | 13 | 271 | 0.0 | 1.6 | 0.00 | 0.00 | 0.00 | 90 | 1016.0 |
| 20260901104534 | 13 | 261 | 0.0 | 1.6 | 0.00 | 0.00 | 0.00 | 91 | 1015.9 |
| 20260901103033 | 12 | 260 | 0.0 | 4.8 | 0.00 | 0.00 | 0.00 | 91 | 1015.9 |
| 20260901101545 | 12 | 192 | 0.0 | 1.6 | 0.00 | 0.00 | 0.00 | 91 | 1015.5 |
| 20260901100030 | 12 | 194 | 0.0 | 1.6 | 0.00 | 0.00 | 0.00 | 91 | 1015.2 |
| 20260901094529 | 12 | 194 | 0.0 | 1.6 | 0.00 | 0.00 | 0.00 | 90 | 1015.4 |
| 20260901093027 | 12 | 194 | 0.0 | 3.2 | 0.00 | 0.00 | 0.00 | 90 | 1015.6 |
| 20260901091528 | 12 | 190 | 0.0 | 0.0 | 0.00 | 0.00 | 0.00 | 90 | 1015.5 |
| 20260901090028 | 12 | 190 | 0.0 | 1.6 | 0.00 | 0.00 | 0.00 | 90 | 1015.6 |
| 20260901084532 | 12 | 190 | 0.0 | 1.6 | 0.00 | 0.00 | 0.00 | 90 | 1015.6 |
| 20260901083025 | 12 | 190 | 0.0 | 0.0 | 0.00 | 0.00 | 0.00 | 90 | 1015.5 |
| 20260901081521 | 12 | 190 | 0.0 | 3.2 | 0.00 | 0.00 | 0.00 | 90 | 1015.7 |
| 20260901080020 | 12 | 188 | 0.0 | 1.6 | 0.00 | 0.00 | 0.00 | 90 | 1015.7 |
| 20260901074525 | 12 | 188 | 0.0 | 1.6 | 0.00 | 0.00 | 0.00 | 90 | 1015.7 |
| 20260901073018 | 12 | 187 | 0.0 | 1.6 | 0.00 | 0.00 | 0.00 | 90 | 1015.7 |
| 20260901071517 | 12 | 186 | 0.0 | 3.2 | 0.00 | 0.00 | 0.00 | 90 | 1016.0 |